Location: Breux
(46.3269°N, 3.2993°E)
Time: 08:51:19
(UTC+00:00)

Cosmos 2360 Rocket - Pass Details

Date: 09 April 2020
Orbit: 833 x 845 km, 71.0° (Epoch: 04 June)

Event Time Altitude Azimuth Distance (km) Brightness Sun altitude
Rises 21:28:59 0° 341° (NNW) 3,393 6.4 -27.4°
Reaches altitude 10° 21:33:05 10° 10° (N) 2,457 5.1 -27.9°
Maximum altitude 21:35:28 13° 36° (NE) 2,272 4.6 -28.1°
Enters shadow 21:37:18 11° 56° (NE) 2,382 4.5 -28.3°
